Date_and_time,latitude,longitude,wind_speed,RelWindDirFrom,WindDirFrom,air_pressure,air_temperature,relative_humidity,Temp,platform_speed_wrt_ground,air_pressure_at_mean_sea_level,platform_orientation
2018-05-07 00:00,50.6304466666667,-96.9807633333333,2.3,3.0,85,990.12,9.8,49,5.72,0.0,1017.13,336.5
2018-05-07 00:10,50.6304433333333,-96.9807566666667,2.4,3.9,99,990.05,10.0,48,5.77,0.0,1017.06,336.5
2018-05-07 00:20,50.6304416666667,-96.9807566666667,1.6,3.8,120,989.96,10.5,48,5.83,0.0,1016.86,336.5
2018-05-07 00:30,50.6304416666667,-96.9807566666667,1.3,2.6,114,989.93,11.2,46,5.82,0.0,1016.77,336.5
2018-05-07 00:40,50.6304416666667,-96.9807583333333,1.6,3.5,133,989.89,11.0,46,5.81,0.0,1016.76,336.5
2018-05-07 00:50,50.6304483333333,-96.9807666666667,1.2,2.2,166,989.85,10.3,48,5.80,0.0,1016.77,336.5
2018-05-07 01:00,50.6304466666667,-96.9807583333333,3.1,5.4,165,989.76,9.9,47,5.80,0.0,1016.72,38.0
2018-05-07 01:10,50.63046,-96.9807816666667,3.3,4.3,186,989.74,9.5,49,5.87,0.0,1016.72,38.0
2018-05-07 01:20,50.6304483333333,-96.9807716666667,3.0,3.5,194,989.68,10.1,49,5.88,0.0,1016.64,38.0
2018-05-07 01:30,50.6304516666667,-96.980765,3.2,3.8,198,989.69,11.6,48,5.89,0.0,1016.54,38.0
2018-05-07 01:40,50.6304316666667,-96.9807816666667,3.3,4.4,210,989.71,12.5,42,5.87,0.0,1016.51,38.0
2018-05-07 01:50,50.6304433333333,-96.9807733333333,3.1,4.1,193,989.65,13.2,38,5.82,0.0,1016.41,38.0
2018-05-07 02:00,50.6304333333333,-96.980765,4.6,5.2,185,989.54,12.9,41,5.84,0.0,1016.31,194.5
2018-05-07 02:10,50.6304416666667,-96.98077,5.2,5.9,189,989.47,12.7,41,5.89,0.0,1016.23,194.5
2018-05-07 02:20,50.630415,-96.9807666666667,6.5,7.2,183,989.48,12.8,41,5.93,0.0,1016.20,194.5
2018-05-07 02:30,50.6304366666667,-96.9807616666667,6.3,7.1,178,989.46,12.6,42,5.95,0.0,1016.20,194.5
2018-05-07 02:40,50.6304366666667,-96.98076,6.2,6.8,176,989.41,12.1,45,6.00,0.0,1016.20,194.5
2018-05-07 02:50,50.6304366666667,-96.9807616666667,7.3,8.0,175,989.28,11.4,53,6.04,0.0,1016.12,194.5
2018-05-07 03:00,50.6304516666667,-96.980775,6.7,7.3,184,989.30,11.4,49,6.06,0.0,1016.16,347.4
2018-05-07 03:10,50.6304216666667,-96.9807566666667,7.0,7.6,189,989.34,12.5,43,6.10,0.0,1016.12,347.4
2018-05-07 03:20,50.630425,-96.980765,6.5,7.4,195,989.35,13.5,37,6.13,0.0,1016.01,347.4
2018-05-07 03:30,50.630425,-96.980765,6.4,7.3,205,989.35,13.8,35,6.14,0.0,1015.95,347.4
2018-05-07 03:40,50.63043,-96.980775,7.9,9.3,191,989.18,14.0,34,6.12,0.0,1015.74,347.4
2018-05-07 03:50,50.6304216666667,-96.9807683333333,8.6,9.6,194,989.13,14.2,34,6.12,0.0,1015.69,347.4
2018-05-07 04:00,50.6304266666667,-96.9807733333333,7.5,8.4,193,989.06,14.6,33,6.13,0.0,1015.62,194.5
2018-05-07 04:10,50.63043,-96.9807666666667,7.4,8.3,197,989.06,14.1,34,6.17,0.0,1015.63,194.5
2018-05-07 04:20,50.6304166666667,-96.9807666666667,7.7,8.6,202,989.07,13.8,34,6.26,0.0,1015.66,194.5
2018-05-07 04:30,50.6304266666667,-96.9807633333333,7.1,8.7,205,989.06,13.7,35,6.71,0.0,1015.68,194.5
2018-05-07 04:40,50.63043,-96.9807683333333,6.7,9.2,202,989.06,13.6,36,7.00,0.0,1015.73,194.5
2018-05-07 04:50,50.6304316666667,-96.980765,8.3,10.0,196,989.04,13.1,38,7.18,0.0,1015.73,194.5
2018-05-07 05:00,50.6304333333333,-96.980765,8.5,10.2,199,988.99,12.8,40,7.31,0.0,1015.63,0.0
2018-05-07 05:10,50.6304366666667,-96.980745,9.9,11.8,193,988.89,12.7,40,7.35,0.0,1015.49,0.0
2018-05-07 05:20,50.6304366666667,-96.9807416666667,10.4,12.4,193,988.80,12.2,41,7.40,0.0,1015.40,0.0
2018-05-07 05:30,50.6304016666667,-96.9807483333333,10.1,12.1,190,988.76,12.2,41,7.50,0.0,1015.36,0.0
2018-05-07 05:40,50.6304333333333,-96.9807566666667,9.8,11.4,188,988.71,11.9,42,7.52,0.0,1015.31,0.0
2018-05-07 05:50,50.630435,-96.9807633333333,9.7,11.7,189,988.62,11.6,43,7.58,0.0,1015.22,0.0
2018-05-07 06:00,50.6304366666667,-96.9807583333333,10.6,14.3,188,988.51,11.5,43,7.59,0.0,1015.12,176.8
2018-05-07 06:10,50.6304366666667,-96.9807566666667,11.5,13.8,187,988.39,11.9,42,7.56,0.0,1015.00,176.8
2018-05-07 06:20,50.6304466666667,-96.98078,11.2,14.2,187,988.28,12.1,41,7.48,0.0,1014.88,176.8
2018-05-07 06:30,50.6304516666667,-96.9807683333333,10.0,12.2,187,988.20,12.2,40,7.33,0.0,1014.81,176.8
2018-05-07 06:40,50.63045,-96.9807616666667,8.6,9.6,190,988.18,11.9,41,7.16,0.0,1014.81,176.8
2018-05-07 06:50,50.6304616666667,-96.9807916666667,8.6,10.1,196,988.09,12.1,39,7.01,0.0,1014.73,176.8
2018-05-07 07:00,50.630455,-96.98077,8.5,10.2,199,988.00,12.3,39,6.87,0.0,1014.63,13.3
2018-05-07 07:10,50.6304483333333,-96.9807633333333,8.9,10.8,202,987.98,12.2,39,6.69,0.0,1014.63,13.3
2018-05-07 07:20,50.6304483333333,-96.9807633333333,10.0,12.5,199,987.99,12.3,39,6.56,0.0,1014.65,13.3
2018-05-07 07:30,50.6304483333333,-96.9807633333333,11.6,14.9,196,987.92,12.2,40,6.51,0.0,1014.60,13.3
2018-05-07 07:40,50.6304466666667,-96.980765,12.1,15.3,195,987.91,12.1,41,6.47,0.0,1014.60,13.3
2018-05-07 07:50,50.6304466666667,-96.980765,12.8,17.3,197,987.91,11.9,41,6.46,0.0,1014.62,13.3
2018-05-07 08:00,50.630445,-96.9807533333333,12.6,18.5,198,987.88,11.7,42,6.43,0.0,1014.57,48.3
2018-05-07 08:10,50.6304383333333,-96.9807566666667,12.2,17.4,201,987.89,11.6,43,6.40,0.0,1014.59,48.3
2018-05-07 08:20,50.6304183333333,-96.980755,10.9,15.3,204,987.86,12.0,42,6.39,0.0,1014.52,48.3
2018-05-07 08:30,50.6304283333333,-96.980755,10.4,14.1,209,987.83,12.2,42,6.41,0.0,1014.50,48.3
2018-05-07 08:40,50.63044,-96.9807633333333,10.8,14.5,208,987.79,12.1,42,6.42,0.0,1014.46,48.3
2018-05-07 08:50,50.63044,-96.9807683333333,12.2,16.2,209,987.76,12.3,42,6.43,0.0,1014.41,48.3
2018-05-07 09:00,50.6304366666667,-96.9807783333333,12.3,17.4,207,987.68,12.6,41,6.45,0.0,1014.31,270.0
2018-05-07 09:10,50.6304383333333,-96.9807733333333,13.2,18.3,208,987.64,13.0,40,6.44,0.0,1014.25,270.0
2018-05-07 09:20,50.63044,-96.9807683333333,13.3,20.5,208,987.58,13.3,39,6.41,0.0,1014.18,270.0
2018-05-07 09:30,50.6304433333333,-96.9807666666667,14.0,18.0,208,987.53,13.7,38,6.38,0.0,1014.12,270.0
2018-05-07 09:40,50.6304433333333,-96.9807633333333,13.5,17.2,207,987.46,13.5,39,6.34,0.0,1014.06,270.0
2018-05-07 09:50,50.6304433333333,-96.9807616666667,13.9,19.3,209,987.44,13.4,39,6.30,0.0,1014.05,270.0
2018-05-07 10:00,50.6304433333333,-96.9807616666667,15.0,18.7,208,987.40,13.4,38,6.26,0.0,1014.01,165.5
2018-05-07 10:10,50.630445,-96.98076,14.3,21.6,208,987.35,13.3,39,6.21,0.0,1013.95,165.5
2018-05-07 10:20,50.63042,-96.9807566666667,14.9,20.3,209,987.32,13.2,39,6.17,0.0,1013.92,165.5
2018-05-07 10:30,50.6304416666667,-96.980745,12.9,19.3,211,987.32,13.1,39,6.07,0.0,1013.93,165.5
2018-05-07 10:40,50.6304466666667,-96.98076,12.7,17.1,211,987.26,13.0,40,6.06,0.0,1013.85,165.5
2018-05-07 10:50,50.6304233333333,-96.9807433333333,12.4,18.4,210,987.27,12.8,40,6.01,0.0,1013.86,165.5
2018-05-07 11:00,50.6304416666667,-96.9807516666667,10.9,14.8,209,987.22,12.4,42,5.98,0.0,1013.82,0.0
2018-05-07 11:10,50.6304433333333,-96.9807516666667,10.7,13.4,209,987.17,11.9,43,5.96,0.0,1013.77,0.0
2018-05-07 11:20,50.630445,-96.9807533333333,10.9,13.4,210,987.14,11.6,44,5.90,0.0,1013.74,0.0
2018-05-07 11:30,50.6304466666667,-96.9807566666667,10.5,13.1,210,987.12,11.4,45,5.87,0.0,1013.74,0.0
2018-05-07 11:40,50.630445,-96.9807566666667,11.3,14.5,210,987.09,11.2,45,5.81,0.0,1013.71,0.0
2018-05-07 11:50,50.630445,-96.9807583333333,10.0,12.6,211,987.08,11.0,46,5.75,0.0,1013.71,0.0
2018-05-07 12:00,50.630445,-96.9807583333333,9.4,13.5,215,987.09,11.2,45,5.74,0.0,1013.72,73.2
2018-05-07 12:10,50.630445,-96.9807566666667,8.7,11.4,217,987.03,11.3,45,5.97,0.0,1013.66,73.2
2018-05-07 12:20,50.630445,-96.9807583333333,8.3,12.0,217,986.97,11.5,44,6.18,0.0,1013.60,73.2
2018-05-07 12:30,50.6304433333333,-96.9807566666667,7.2,9.3,212,987.00,11.7,44,6.28,0.0,1013.62,73.2
2018-05-07 12:40,50.6304433333333,-96.9807566666667,7.0,8.8,211,986.96,11.8,44,6.32,0.0,1013.59,73.2
2018-05-07 12:50,50.6304416666667,-96.980755,6.7,9.7,212,986.95,12.3,42,6.37,0.0,1013.57,73.2
2018-05-07 13:00,50.6304416666667,-96.980755,7.2,10.1,217,986.95,12.9,41,6.40,0.0,1013.57,0.0
2018-05-07 13:10,50.63044,-96.9807566666667,7.2,10.7,217,986.89,13.5,39,6.39,0.0,1013.49,0.0
2018-05-07 13:20,50.63044,-96.9807566666667,7.9,10.7,213,986.90,14.5,36,6.36,0.0,1013.46,0.0
2018-05-07 13:30,50.63044,-96.9807566666667,7.7,11.5,213,986.92,15.2,34,6.30,0.0,1013.46,0.0
2018-05-07 13:40,50.63044,-96.9807566666667,9.7,13.1,223,986.92,16.7,30,6.42,0.0,1013.39,0.0
2018-05-07 13:50,50.63044,-96.9807566666667,12.1,16.5,217,986.80,18.0,26,6.48,0.0,1013.20,0.0
2018-05-07 14:00,50.63044,-96.9807566666667,11.1,16.1,213,986.66,18.7,25,6.42,0.0,1013.02,270.0
2018-05-07 14:10,50.63044,-96.9807566666667,13.3,19.5,214,986.54,19.3,24,6.48,0.0,1012.86,270.0
2018-05-07 14:20,50.63044,-96.9807566666667,14.5,19.8,213,986.40,19.7,24,6.50,0.0,1012.70,270.0
2018-05-07 14:30,50.63044,-96.9807566666667,13.8,18.5,224,986.31,19.9,24,6.50,0.0,1012.59,270.0
2018-05-07 14:40,50.63044,-96.9807583333333,12.7,17.3,221,986.18,20.2,23,6.43,0.0,1012.42,270.0
2018-05-07 14:50,50.63044,-96.9807583333333,13.0,20.3,229,986.10,20.5,23,6.37,0.0,1012.30,270.0
2018-05-07 15:00,50.63044,-96.9807583333333,11.7,17.1,225,985.99,20.5,23,6.28,0.0,1012.15,90.0
2018-05-07 15:10,50.63044,-96.9807583333333,12.8,16.5,231,985.91,20.7,23,6.11,0.0,1012.02,90.0
2018-05-07 15:20,50.63044,-96.9807583333333,11.4,17.1,224,985.78,20.9,23,6.02,0.0,1011.84,90.0
2018-05-07 15:30,50.6304316666667,-96.9807466666667,11.2,14.8,221,985.68,21.1,23,6.01,0.0,1011.66,90.0
2018-05-07 15:40,50.6304383333333,-96.9807483333333,10.1,13.5,228,985.62,21.5,23,6.03,0.0,1011.52,90.0
2018-05-07 15:50,50.6304416666667,-96.98075,11.2,15.2,221,985.59,21.9,22,6.09,0.0,1011.45,90.0
2018-05-07 16:00,50.6304433333333,-96.9807466666667,9.7,13.4,226,985.53,22.3,22,6.14,0.0,1011.34,90.0
2018-05-07 16:10,50.6304433333333,-96.9807466666667,9.1,14.7,224,985.42,22.6,22,6.12,0.0,1011.19,90.0
2018-05-07 16:20,50.6304433333333,-96.9807483333333,8.9,12.5,217,985.33,23.0,21,6.05,0.0,1011.08,90.0
2018-05-07 16:30,50.6304433333333,-96.9807483333333,7.2,11.8,221,985.27,23.5,21,5.99,0.0,1010.98,90.0
2018-05-07 16:40,50.6304433333333,-96.98075,7.1,11.7,239,985.21,24.3,20,6.41,0.0,1010.87,90.0
2018-05-07 16:50,50.6304416666667,-96.9807516666667,7.4,11.2,229,985.08,24.8,19,6.60,0.0,1010.72,90.0
2018-05-07 17:00,50.63044,-96.9807433333333,7.7,12.3,242,984.95,25.2,18,6.66,0.0,1010.56,90.0
2018-05-07 17:10,50.63044,-96.98076,8.9,13.3,229,984.89,25.7,17,6.74,0.0,1010.46,90.0
2018-05-07 17:20,50.6304416666667,-96.980765,6.7,13.7,257,984.77,26.1,17,7.04,0.0,1010.31,90.0
2018-05-07 17:30,50.63044,-96.9807633333333,8.5,15.0,254,984.74,26.5,16,7.06,0.0,1010.25,90.0
2018-05-07 17:40,50.6304383333333,-96.9807616666667,8.3,14.0,252,984.71,26.8,15,6.98,0.0,1010.19,90.0
2018-05-07 17:50,50.6304383333333,-96.9807616666667,10.0,15.9,270,984.54,27.0,15,7.20,0.0,1009.99,90.0
2018-05-07 18:00,50.6304366666667,-96.9807616666667,9.3,17.4,254,984.55,27.2,15,7.34,0.0,1009.98,360.0
2018-05-07 18:10,50.6304366666667,-96.9807616666667,10.5,19.5,265,984.53,27.3,14,7.45,0.0,1009.93,360.0
2018-05-07 18:20,50.630435,-96.9807616666667,10.0,16.2,254,984.54,27.5,14,7.85,0.0,1009.91,360.0
2018-05-07 18:30,50.63042,-96.9807416666667,9.8,18.4,238,984.46,27.3,14,8.37,0.0,1009.81,360.0
2018-05-07 18:40,50.6304216666667,-96.9807433333333,9.9,19.9,247,984.37,27.6,14,8.58,0.0,1009.68,360.0
2018-05-07 18:50,50.630425,-96.9807466666667,11.0,21.6,248,984.28,27.8,14,8.24,0.0,1009.56,360.0
2018-05-07 19:00,50.6304283333333,-96.9807616666667,10.3,17.4,252,984.22,27.9,13,7.85,0.0,1009.47,212.5
2018-05-07 19:10,50.63043,-96.98077,11.3,19.2,254,984.12,28.1,13,7.52,0.0,1009.34,212.5
2018-05-07 19:20,50.6304166666667,-96.9807833333333,8.9,17.4,279,984.06,28.1,13,7.33,0.0,1009.26,212.5
2018-05-07 19:30,50.6304266666667,-96.9807666666667,9.6,19.3,240,984.01,28.1,13,7.50,0.0,1009.20,212.5
2018-05-07 19:40,50.630425,-96.980765,12.6,20.3,233,983.97,27.9,13,7.35,0.0,1009.16,212.5
2018-05-07 19:50,50.630435,-96.9807566666667,9.1,16.4,277,983.80,28.7,12,7.29,0.0,1008.94,212.5
2018-05-07 20:00,50.6304283333333,-96.980755,8.4,15.8,273,983.69,28.7,12,7.83,0.0,1008.83,183.2
2018-05-07 20:10,50.6304266666667,-96.9807516666667,9.6,19.6,307,983.52,28.4,13,8.25,0.0,1008.66,183.2
2018-05-07 20:20,50.630435,-96.980765,10.6,19.0,290,983.49,28.7,13,7.85,0.0,1008.62,183.2
2018-05-07 20:30,50.63043,-96.980755,10.4,15.6,274,983.65,28.3,13,7.64,0.0,1008.79,183.2
2018-05-07 20:40,50.6304283333333,-96.9807566666667,8.2,18.4,294,983.61,28.1,14,8.10,0.0,1008.75,183.2
2018-05-07 20:50,50.6304333333333,-96.9807583333333,10.3,16.6,281,983.48,28.3,13,8.24,0.0,1008.60,183.2
2018-05-07 21:00,50.6304333333333,-96.9807583333333,8.5,14.7,277,983.44,28.9,12,7.98,0.0,1008.53,142.0
2018-05-07 21:10,50.630435,-96.9807583333333,12.6,18.4,262,983.50,28.8,12,7.81,0.0,1008.60,142.0
2018-05-07 21:20,50.630435,-96.9807566666667,9.9,17.3,282,983.49,28.4,12,7.91,0.0,1008.60,142.0
2018-05-07 21:30,50.630435,-96.980755,7.6,21.7,303,983.63,28.3,13,8.60,0.0,1008.76,142.0
2018-05-07 21:40,50.630435,-96.9807533333333,11.5,18.0,0,984.00,23.9,22,8.64,0.0,1009.29,142.0
2018-05-07 21:50,50.630435,-96.980755,10.7,15.3,3,984.25,19.7,28,7.98,0.0,1009.73,142.0
2018-05-07 22:00,50.6304283333333,-96.98077,7.8,10.6,7,984.48,18.1,30,8.19,0.0,1010.04,270.0
2018-05-07 22:10,50.6304033333333,-96.9807683333333,10.9,13.3,26,984.49,15.9,36,8.23,0.0,1010.14,270.0
2018-05-07 22:20,50.630415,-96.98076,10.9,12.1,25,984.63,13.7,41,7.91,0.0,1010.39,270.0
2018-05-07 22:30,50.6304183333333,-96.9807583333333,9.7,12.0,20,984.79,11.5,50,7.58,0.0,1010.67,270.0
2018-05-07 22:40,50.6304183333333,-96.9807566666667,10.7,12.4,11,984.92,10.7,50,7.30,0.0,1010.83,270.0
2018-05-07 22:50,50.63042,-96.9807583333333,11.2,13.7,13,984.97,11.3,49,7.63,0.0,1010.83,270.0
2018-05-07 23:00,50.6304216666667,-96.98076,12.0,15.7,16,985.05,10.4,52,8.05,0.0,1010.95,142.0
2018-05-07 23:10,50.6304216666667,-96.98076,12.9,14.2,16,985.24,10.0,54,8.12,0.0,1011.18,142.0
2018-05-07 23:20,50.6304233333333,-96.98076,13.6,16.6,14,985.35,10.4,53,8.00,0.0,1011.28,142.0
2018-05-07 23:30,50.6304433333333,-96.9807716666667,10.9,12.5,18,985.46,10.1,55,7.99,0.0,1011.61,142.0
2018-05-07 23:40,50.6304183333333,-96.9807633333333,11.4,12.8,21,985.61,9.6,55,7.89,0.0,1011.98,142.0
